Skip Page Navigation
NASA JPL Caltech
NASA Logo - Jet Propulsion Laboratory + View the NASA Portal
+ Near-Earth Object (NEO) Program
Search JPL
JPL Home Earth Solar System Stars & Galaxies Technology
JPL Solar System Dynamics
BODIES ORBITS EPHEMERIDES TOOLS PHYSICAL DATA DISCOVERY FAQ SITE MAP
JPL Small-Body Database Browser
Search: [ help ]  
8160 (1990 MG)
Classification: Main-belt Asteroid          SPK-ID: 2008160
Ephemeris | Orbit Diagram | Orbital Elements | Physical Parameters | Discovery Circumstances ]

[ show orbit diagram ]
Orbital Elements at Epoch 2457000.5 (2014-Dec-09.0) TDB
Reference: JPL 19 (heliocentric ecliptic J2000)
 Element Value Uncertainty (1-sigma)   Units 
e .186289097537131 5.0337e-08  
a 2.19066556208246 1.1296e-08 AU
q 1.782568451516447 1.0902e-07 AU
i 3.609594428743977 4.4595e-06 deg
node 88.70794834096043 9.5916e-05 deg
peri 218.6748680681328 9.8015e-05 deg
M 191.5863716500538 2.3576e-05 deg
tp 2457554.535100749559
(2016-Jun-15.03510075)
7.9952e-05 JED
period 1184.302233875035
3.24
9.1603e-06
2.508e-08
d
yr
n .3039764594735927 2.3512e-09 deg/d
Q 2.598762672648473 1.3401e-08 AU
  Orbit Determination Parameters
   # obs. used (total)      1296  
   data-arc span      21208 days (58.06 yr)  
   first obs. used      1957-04-28  
   last obs. used      2015-05-22  
   planetary ephem.      DE431  
   SB-pert. ephem.      SB431-BIG16  
   condition code      0  
   fit RMS      .49868  
   data source      ORB  
   producer      Otto Matic  
   solution date      2015-Jun-04 16:00:36  

Additional Information
 Earth MOID = .770431 AU 
 T_jup = 3.648 
[ show covariance matrix ]

Ephemeris | Orbit Diagram | Orbital Elements | Physical Parameters | Discovery Circumstances ]

Physical Parameter Table
Parameter Symbol Value Units Sigma Reference Notes
absolute magnitude H 14.1 mag n/a MPO337324  

8160 (1990 MG)          Discovered 1990-Jun-21 by Holt, H. E. at Palomar
Reference: DISCOVERY.DBLast Updated: 2003-08-29

Alternate Designations
 1990 MG = 1958 VN = 1979 BY2 
Ephemeris | Orbit Diagram | Orbital Elements | Physical Parameters | Discovery Circumstances ]
ABOUT SSD CREDITS/AWARDS PRIVACY/COPYRIGHT GLOSSARY LINKS
FirstGov 2015-Jul-04 20:45 UT
(server date/time)  
NASA Home Page
Site Manager:   Ryan S. Park
Webmaster  Alan B. Chamberlin